EW9431 Weather Reports


Display with metric or nautical units.
time (UTC)temp
F
wind
direction
speed
MPH
gust
MPH
rain 1hr
in
rain 24hr
in
rain mn
in
humidity
%
barometer
mb
20260502195540 70 172 3.0 7.0 0.00 0.00 0.00 53 1016.8
20260502195039 70 213 2.0 7.0 0.00 0.00 0.00 54 1016.8
20260502194539 70 167 3.0 7.0 0.00 0.00 0.00 54 1016.9
20260502194038 70 199 3.0 7.0 0.00 0.00 0.00 54 1016.9
20260502193537 70 235 2.0 7.0 0.00 0.00 0.00 55 1016.9
20260502193039 70 207 3.0 7.0 0.00 0.00 0.00 55 1016.9
20260502192535 70 201 3.0 6.0 0.00 0.00 0.00 55 1016.9
20260502192034 70 230 2.0 6.0 0.00 0.00 0.00 55 1016.9
20260502191533 70 164 3.0 6.0 0.00 0.00 0.00 57 1017.0
20260502191033 69 170 2.0 7.0 0.00 0.00 0.00 58 1017.0
20260502190532 69 214 4.0 8.0 0.00 0.00 0.00 56 1017.0
20260502190041 69 191 4.0 8.0 0.00 0.00 0.00 57 1017.1
20260502185529 69 213 4.0 7.0 0.00 0.00 0.00 57 1017.1
20260502185029 69 266 2.0 9.0 0.00 0.00 0.00 58 1017.1
20260502184528 69 193 4.0 9.0 0.00 0.00 0.00 57 1017.1
20260502184026 69 196 4.0 9.0 0.00 0.00 0.00 58 1017.1
20260502183525 69 216 4.0 9.0 0.00 0.00 0.00 57 1017.1
20260502183024 69 211 3.0 6.0 0.00 0.00 0.00 57 1017.0
20260502182523 69 211 1.0 7.0 0.00 0.00 0.00 58 1017.0
20260502182021 69 148 2.0 7.0 0.00 0.00 0.00 60 1017.1
20260502181528 69 153 2.0 6.0 0.00 0.00 0.00 61 1017.1
20260502181018 68 185 3.0 7.0 0.00 0.00 0.00 61 1017.1
20260502180517 68 182 3.0 6.0 0.00 0.00 0.00 61 1017.2
20260502164055 63 226 2.0 5.0 0.00 0.00 0.00 71 1017.7
20260502163553 62 191 1.0 6.0 0.00 0.00 0.00 71 1017.7
20260502163054 62 214 4.0 6.0 0.00 0.00 0.00 72 1017.7
20260502162553 62 172 2.0 5.0 0.00 0.00 0.00 73 1017.7
20260502162050 62 175 3.0 5.0 0.00 0.00 0.00 73 1017.7
20260502161547 62 189 3.0 4.0 0.00 0.00 0.00 74 1017.7
20260502161045 61 196 2.0 5.0 0.00 0.00 0.00 75 1017.6
20260502160543 61 212 2.0 6.0 0.00 0.00 0.00 75 1017.7
20260502152030 56 183 1.0 4.0 0.00 0.00 0.00 85 1017.6
20260502151547 56 215 1.0 4.0 0.00 0.00 0.00 86 1017.6
20260502151028 55 225 0.0 4.0 0.00 0.00 0.00 86 1017.6
20260502150527 55 233 0.0 5.0 0.00 0.00 0.00 87 1017.6
20260502130506 51 20 2.0 4.0 0.00 0.00 0.00 81 1016.5
20260502123559 51 10 1.0 3.0 0.00 0.00 0.00 79 1016.3
20260502123105 51 56 2.0 4.0 0.00 0.00 0.00 79 1016.2
20260502122559 51 47 2.0 4.0 0.00 0.00 0.00 79 1016.2
20260502122059 51 28 1.0 3.0 0.00 0.00 0.00 79 1016.3
20260502121558 51 27 1.0 3.0 0.00 0.00 0.00 79 1016.3
20260502121101 51 47 1.0 3.0 0.00 0.00 0.00 79 1016.3
20260502120558 51 48 0.0 3.0 0.00 0.00 0.00 79 1016.2
20260502115556 52 14 0.0 4.0 0.00 0.00 0.00 78 1016.3
20260502115056 52 14 1.0 4.0 0.00 0.00 0.00 78 1016.2
20260502114559 52 10 1.0 3.0 0.00 0.00 0.00 78 1016.3
20260502114055 52 40 0.0 2.0 0.00 0.00 0.00 78 1016.3
20260502113554 52 43 1.0 3.0 0.00 0.00 0.00 78 1016.3
20260502113054 52 18 0.0 3.0 0.00 0.00 0.00 77 1016.3
20260502112552 52 51 1.0 3.0 0.00 0.00 0.00 77 1016.3
20260502112052 52 36 1.0 4.0 0.00 0.00 0.00 77 1016.3
20260502111558 52 17 1.0 3.0 0.00 0.00 0.00 76 1016.2
20260502111050 52 37 1.0 3.0 0.00 0.00 0.00 76 1016.2
20260502110550 53 27 2.0 3.0 0.00 0.00 0.00 76 1016.2
20260502110051 53 17 0.0 3.0 0.00 0.00 0.00 76 1016.2
20260502105547 53 17 1.0 2.0 0.00 0.00 0.00 76 1016.2
20260502105046 53 17 1.0 2.0 0.00 0.00 0.00 76 1016.2
20260502104546 53 344 0.0 2.0 0.00 0.00 0.00 76 1016.1
20260502104046 53 344 0.0 3.0 0.00 0.00 0.00 75 1016.1
20260502103546 53 344 1.0 3.0 0.00 0.00 0.00 75 1016.0
20260502103044 53 20 0.0 2.0 0.00 0.00 0.00 75 1015.9
20260502102544 53 20 0.0 2.0 0.00 0.00 0.00 74 1015.9
20260502102046 54 20 0.0 2.0 0.00 0.00 0.00 74 1015.9
20260502101556 54 20 0.0 2.0 0.00 0.00 0.00 74 1015.9
20260502101041 54 20 1.0 3.0 0.00 0.00 0.00 74 1015.8
20260502100542 54 29 1.0 3.0 0.00 0.00 0.00 74 1015.8
20260502100107 54 31 2.0 4.0 0.00 0.00 0.00 73 1015.7
20260502091041 55 27 1.0 3.0 0.00 0.00 0.00 71 1015.9
20260502090534 55 27 1.0 3.0 0.00 0.00 0.00 71 1015.8
20260502071514 59 38 0.0 2.0 0.00 0.00 0.00 67 1015.4
20260502071013 59 38 0.0 2.0 0.00 0.00 0.00 67 1015.3
20260502070513 60 38 1.0 2.0 0.00 0.00 0.00 67 1015.3
20260502070011 60 38 1.0 2.0 0.00 0.00 0.00 66 1015.3
20260502065511 60 141 1.0 2.0 0.00 0.00 0.00 65 1015.4
20260502065011 61 215 0.0 3.0 0.00 0.00 0.00 66 1015.3
20260502064510 61 215 1.0 3.0 0.00 0.00 0.00 64 1015.2
20260502064017 61 215 1.0 3.0 0.00 0.00 0.00 61 1015.1
20260502063510 61 289 0.0 5.0 0.00 0.00 0.00 57 1015.0
20260502063010 62 311 1.0 6.0 0.00 0.00 0.00 58 1015.1
20260502062513 62 313 3.0 6.0 0.00 0.00 0.00 58 1015.0
20260502062008 62 49 2.0 4.0 0.00 0.00 0.00 58 1014.9
20260502061512 63 42 1.0 9.0 0.00 0.00 0.00 56 1014.9
20260502061009 63 49 2.0 9.0 0.00 0.00 0.00 54 1014.8
20260502060509 63 30 2.0 9.0 0.00 0.00 0.00 54 1014.8
20260502060009 63 318 0.0 7.0 0.00 0.00 0.00 53 1014.7
20260502055509 63 316 2.0 13.0 0.00 0.00 0.00 53 1014.7
20260502055008 63 10 5.0 13.0 0.00 0.00 0.00 53 1014.6
20260502054507 63 26 7.0 14.0 0.00 0.00 0.00 53 1014.6
20260502054012 63 18 8.0 14.0 0.00 0.00 0.00 53 1014.6
20260502053507 63 16 8.0 14.0 0.00 0.00 0.00 52 1014.5
20260502053007 63 353 9.0 15.0 0.00 0.00 0.00 52 1014.5
20260502052507 63 342 10.0 15.0 0.00 0.00 0.00 53 1014.6
20260502052006 64 360 8.0 15.0 0.00 0.00 0.00 52 1014.6
20260502051515 64 340 8.0 12.0 0.00 0.00 0.00 52 1014.5
20260502051005 64 355 7.0 13.0 0.00 0.00 0.00 52 1014.5
20260502050508 64 39 6.0 13.0 0.00 0.00 0.00 52 1014.4
20260502050005 64 10 7.0 14.0 0.00 0.00 0.00 52 1014.4
20260502045508 64 10 8.0 14.0 0.00 0.00 0.00 53 1014.5
20260502045004 64 353 8.0 15.0 0.00 0.00 0.00 53 1014.5
20260502044502 64 33 8.0 15.0 0.00 0.00 0.00 53 1014.5
20260502044003 64 35 7.0 11.0 0.00 0.00 0.00 52 1014.5
20260502043503 64 360 6.0 14.0 0.00 0.00 0.00 51 1014.5
20260502043003 64 336 6.0 14.0 0.00 0.00 0.00 52 1014.5
20260502042502 63 360 6.0 12.0 0.00 0.00 0.00 52 1014.5
20260502042004 63 355 7.0 12.0 0.00 0.00 0.00 53 1014.5
20260502041505 63 27 4.0 11.0 0.00 0.00 0.00 53 1014.4
20260502041001 63 10 3.0 11.0 0.00 0.00 0.00 54 1014.5
20260502040501 63 46 3.0 6.0 0.00 0.00 0.00 55 1014.4
20260502040007 63 10 2.0 5.0 0.00 0.00 0.00 56 1014.3
20260502035502 64 40 2.0 3.0 0.00 0.00 0.00 60 1014.3
20260502035002 64 40 1.0 3.0 0.00 0.00 0.00 63 1014.3
20260502034503 64 360 1.0 3.0 0.00 0.00 0.00 64 1014.2
20260502034101 65 10 1.0 3.0 0.00 0.00 0.00 65 1014.2
20260502033600 65 10 1.0 3.0 0.00 0.00 0.00 65 1014.3
20260502033100 65 256 0.0 1.0 0.00 0.00 0.00 64 1014.3
20260502032600 66 256 0.0 1.0 0.00 0.00 0.00 63 1014.2
20260502032100 66 256 0.0 1.0 0.00 0.00 0.00 62 1014.2
20260502031602 67 256 0.0 2.0 0.00 0.00 0.00 60 1014.1
20260502031100 68 220 0.0 2.0 0.00 0.00 0.00 59 1014.1
20260502030600 68 220 0.0 1.0 0.00 0.00 0.00 58 1014.1
20260502030116 69 220 0.0 2.0 0.00 0.00 0.00 56 1014.1
20260502025559 70 220 0.0 2.0 0.00 0.00 0.00 55 1014.1
20260502025058 70 220 1.0 2.0 0.00 0.00 0.00 54 1014.0
20260502024605 71 220 0.0 2.0 0.00 0.00 0.00 53 1014.0
20260502024058 71 220 0.0 2.0 0.00 0.00 0.00 53 1014.0
20260502023559 72 220 0.0 3.0 0.00 0.00 0.00 52 1014.1
20260502023057 72 216 1.0 3.0 0.00 0.00 0.00 51 1014.1
20260502022556 72 216 1.0 3.0 0.00 0.00 0.00 51 1014.1
20260502022055 72 216 0.0 3.0 0.00 0.00 0.00 50 1014.1
20260502021602 72 216 0.0 3.0 0.00 0.00 0.00 49 1014.1
20260502021055 72 216 2.0 3.0 0.00 0.00 0.00 48 1014.2
20260502020554 72 222 1.0 4.0 0.00 0.00 0.00 49 1014.2
20260502020054 72 226 1.0 6.0 0.00 0.00 0.00 49 1014.1
20260502015554 72 207 2.0 6.0 0.00 0.00 0.00 48 1014.2
20260502015054 72 176 2.0 4.0 0.00 0.00 0.00 49 1014.1
20260502014553 72 144 1.0 4.0 0.00 0.00 0.00 49 1014.1
20260502014052 72 230 1.0 4.0 0.00 0.00 0.00 49 1014.2
20260502013542 73 202 2.0 5.0 0.00 0.00 0.00 47 1014.2
20260502013041 72 213 1.0 5.0 0.00 0.00 0.00 48 1014.3
20260502012540 72 213 2.0 6.0 0.00 0.00 0.00 46 1014.3
20260502012040 72 193 2.0 6.0 0.00 0.00 0.00 46 1014.3
20260502011536 72 266 1.0 5.0 0.00 0.00 0.00 44 1014.4
20260502011034 72 189 2.0 5.0 0.00 0.00 0.00 45 1014.5
20260502010533 72 216 1.0 3.0 0.00 0.00 0.00 45 1014.5
20260502010034 72 180 1.0 7.0 0.00 0.00 0.00 45 1014.6
20260502005534 72 218 3.0 9.0 0.00 0.00 0.00 46 1014.7
20260502005034 72 208 4.0 9.0 0.00 0.00 0.00 46 1014.7
20260502004534 72 203 3.0 7.0 0.00 0.00 0.00 47 1014.6
20260502004036 72 211 3.0 6.0 0.00 0.00 0.00 47 1014.6
20260502003533 72 195 3.0 7.0 0.00 0.00 0.00 46 1014.6
20260502003032 72 237 3.0 7.0 0.00 0.00 0.00 46 1014.6
20260502002533 72 226 1.0 8.0 0.00 0.00 0.00 47 1014.6
20260502002031 72 162 3.0 8.0 0.00 0.00 0.00 45 1014.6
20260502001531 73 194 4.0 8.0 0.00 0.00 0.00 46 1014.6
20260502001031 73 187 3.0 8.0 0.00 0.00 0.00 46 1014.6
20260502000530 73 228 3.0 7.0 0.00 0.00 0.00 46 1014.6
20260502000030 73 205 4.0 7.0 0.00 0.00 0.00 46 1014.7
20260501235529 73 211 3.0 6.0 0.00 0.00 0.00 46 1014.7
20260501235029 73 193 2.0 6.0 0.00 0.00 0.00 46 1014.7
20260501234528 73 260 2.0 7.0 0.00 0.00 0.00 46 1014.7
20260501234030 73 189 3.0 8.0 0.00 0.00 0.00 46 1014.8
20260501233526 73 187 4.0 8.0 0.00 0.00 0.00 45 1014.9
20260501233026 73 216 2.0 7.0 0.00 0.00 0.00 46 1014.9
20260501232525 73 248 2.0 8.0 0.00 0.00 0.00 45 1014.9
20260501232125 73 226 1.0 8.0 0.00 0.00 0.00 45 1015.0
20260501231524 73 192 3.0 7.0 0.00 0.00 0.00 45 1015.0
20260501231022 73 196 2.0 7.0 0.00 0.00 0.00 45 1015.1
20260501230522 73 278 3.0 9.0 0.00 0.00 0.00 45 1015.2
20260501230022 73 243 1.0 9.0 0.00 0.00 0.00 45 1015.3
20260501225522 73 207 2.0 7.0 0.00 0.00 0.00 45 1015.2
20260501225020 73 268 3.0 7.0 0.00 0.00 0.00 44 1015.3
20260501224519 73 318 1.0 9.0 0.00 0.00 0.00 46 1015.4
20260501224017 73 218 4.0 9.0 0.00 0.00 0.00 45 1015.4
20260501223517 72 189 1.0 5.0 0.00 0.00 0.00 46 1015.6
20260501223016 72 191 1.0 4.0 0.00 0.00 0.00 45 1015.6
20260501222517 72 163 1.0 7.0 0.00 0.00 0.00 47 1015.7
20260501222013 71 232 4.0 8.0 0.00 0.00 0.00 47 1015.8
20260501221517 71 202 3.0 8.0 0.00 0.00 0.00 48 1015.8
20260501221011 71 203 4.0 8.0 0.00 0.00 0.00 48 1015.8
20260501220511 71 183 3.0 8.0 0.00 0.00 0.00 47 1016.0
20260501220011 71 219 5.0 8.0 0.00 0.00 0.00 49 1016.0
20260501215511 70 210 4.0 8.0 0.00 0.00 0.00 50 1016.0
20260501215010 70 197 3.0 8.0 0.00 0.00 0.00 50 1016.1
20260501214509 70 202 2.0 8.0 0.00 0.00 0.00 51 1016.1
20260501214009 70 216 4.0 7.0 0.00 0.00 0.00 50 1016.1
20260501213509 70 238 2.0 7.0 0.00 0.00 0.00 51 1016.1
20260501213007 69 199 3.0 7.0 0.00 0.00 0.00 52 1016.2
20260501212507 69 220 2.0 7.0 0.00 0.00 0.00 53 1016.2
20260501212007 68 193 3.0 8.0 0.00 0.00 0.00 50 1016.2
20260501211507 69 264 2.0 8.0 0.00 0.00 0.00 52 1016.2
20260501211007 68 218 3.0 6.0 0.00 0.00 0.00 53 1016.3
20260501210506 68 241 3.0 8.0 0.00 0.00 0.00 51 1016.4
20260501210006 68 158 5.0 10.0 0.00 0.00 0.00 54 1016.4
20260501205506 69 218 5.0 10.0 0.00 0.00 0.00 54 1016.4
20260501205005 69 156 3.0 7.0 0.00 0.00 0.00 53 1016.3
20260501204506 70 237 2.0 7.0 0.00 0.00 0.00 52 1016.3
20260501204004 70 198 3.0 9.0 0.00 0.00 0.00 54 1016.3
20260501203504 70 196 5.0 9.0 0.00 0.00 0.00 53 1016.4
20260501203003 70 200 7.0 10.0 0.00 0.00 0.00 52 1016.4
20260501202503 70 227 5.0 8.0 0.00 0.00 0.00 49 1016.4
20260501202003 70 210 4.0 9.0 0.00 0.00 0.00 49 1016.4
20260501201502 71 178 2.0 9.0 0.00 0.00 0.00 48 1016.3
20260501201005 71 207 4.0 9.0 0.00 0.00 0.00 50 1016.4
20260501200503 71 243 3.0 8.0 0.00 0.00 0.00 51 1016.3
20260501200001 71 187 4.0 8.0 0.00 0.00 0.00 49 1016.4